STARLINK L

Last updated on Wed Apr 23 2025 00:02:06 GMT+0000 (Coordinated Universal Time)

1 63579U 25076L 25112.75002315 -.00762754 18794-3 -20095-2 0 9997 2 63579 43.0021 346.1601 0002087 254.8392 336.6654 15.93805780 2587

Satellite not in orbit